Regional Weather Roundup
Issued by NWS Northern Indiana

Home | Current Version | Previous Version | Text Only | Print | Product List | Glossary On
Versions: 1 2 3 4 5 6 7 8 9 10 11 12 13 14 15 16 17 18 19 20 21 22 23 24 25 26 27 28 29 30 31 32 33 34 35 36 37 38 39 40 41 42 43 44 45 46 47 48 49 50
000
ASUS43 KIWX 281010
RWRIWX

KIWX WEATHER ROUNDUP
NATIONAL WEATHER SERVICE NORTHERN INDIANA
600 AM EDT FRI AUG 28 2015

NOTE: "FAIR" INDICATES FEW OR NO CLOUDS BELOW 12,000 FEET WITH NO
SIGNIFICANT WEATHER AND/OR OBSTRUCTIONS TO VISIBILITY.

* THESE STATIONS ARE NOT UNDER NWS QUALITY CONTROL. THEY ALSO MAY NOT
  REPORT WEATHER SUCH AS PRECIPITATION OR FOG.

INZ001>027-281100-
NORTHERN INDIANA

CITY           SKY/WX    TMP DP  RH WIND       PRES   REMARKS
GARY*          PTCLDY    59  55  88 SE5       30.12F
VALPARAISO     CLEAR     53  52  96 E3        30.14F FOG
MICHIGAN CITY* CLEAR     55  55 100 SE3       30.13F
LAPORTE*       PTCLDY   N/A N/A N/A E5        30.14F FOG
KNOX*          CLEAR     50  50 100 E3        30.14S
SOUTH BEND     CLEAR     55  53  93 E6        30.16F
GOSHEN         PTCLDY    57  54  89 SE5       30.16S
MONTICELLO*    CLEAR     58  58  97 CALM      30.14S
LOGANSPORT*    CLEAR     52  48  87 E3        30.16S
ROCHESTER*     CLEAR     59  59 100 E3        30.16S
WARSAW*        CLEAR     54  54 100 CALM      30.17S FOG
ANGOLA*        PTCLDY    52  52 100 CALM      30.19R
FORT WAYNE     MOCLDY    56  54  93 E3        30.18R
HUNTINGTON*    MOCLDY    53  50  89 CALM      30.17S FOG
PERU/GRISSOM   CLEAR     56  53  91 SE7       30.15S
MARION*        PTCLDY    54  48  82 CALM      30.18R

$$
INZ028>050-281100-
CENTRAL INDIANA

CITY           SKY/WX    TMP DP  RH WIND       PRES   REMARKS
LAFAYETTE      CLEAR     58  55  90 CALM      30.13S
KOKOMO*        PTCLDY    54  50  87 SE5       30.17S
MUNCIE*        MOCLDY    52  52 100 CALM      30.18R
INDIANAPOLIS   CLEAR     61  56  83 E5        30.14S

$$
MIZ043>046-050>051-056>058-064>065-071>073-077>080-281100-
SOUTHWEST LOWER MICHIGAN

CITY           SKY/WX    TMP DP  RH WIND       PRES   REMARKS
BATTLE CREEK   CLEAR     56  53  90 S6        30.18S
BENTON HARBOR  CLEAR     57  54  89 SE6       30.14F
COLDWATER*     FOG       51  51 100 CALM      30.18S VSB 1
HILLSDALE*     PTCLDY    54  54 100 CALM      30.19R FOG
HOLLAND        PTCLDY    54  51  90 SE5       30.15F
GRAND RAPIDS   PTCLDY    53  52  96 CALM      30.17S
KALAMAZOO      CLEAR     57  53  86 S5        30.17F
STURGIS*       CLOUDY    55  54  94 SE6       30.17S
THREE RIVERS*  FAIR      52  52  99 CALM      30.17S FOG

$$
OHZ001>008-015>018-024>025-281100-
NORTHWEST OHIO

CITY           SKY/WX    TMP DP  RH WIND       PRES   REMARKS
WAUSEON*       FOG       48  48 100 CALM      30.19R VSB<1/4
DEFIANCE       PTCLDY    52  50  93 CALM      30.19R
FINDLAY        CLEAR     56  53  90 E3        30.17R
TOLEDO EXPRESS CLEAR     50  50 100 CALM      30.18R
TOLEDO METCALF CLEAR     55  52  89 CALM      30.19R
LIMA           PTCLDY    54  53  97 E3        30.17S FOG

$$
AND FOR LAKE MICHIGAN COASTAL AND OPEN LAKE BUOY OBSERVATIONS

STATION/POSITION TEMP    WIND        PRES    VSBY  WAVE
                 AIR SEA DIR/SP/G                  HT/PER
                 (F)     (DEG/KT/KT) (MB)    (MI)  (FT/S)
CALUMET HARBOR    62     150/  3/  4   N/A
MICHIGAN CITY     60     120/  9/ 10   N/A
BURNS HARBOR      63     140/ 10/ 13 1020.3F
SAINT JOSEPH      58     140/  1/  6 1020.7F
SOUTH LAKE BUOY   67 67  170/ 12/ 14 1019.5F         1/ 3
4 MI NW BRIDGMAN  62 71  190/ 14/ 17   N/A           1/ 2
MICHIGAN CITY     63 71  170/ 12/ 14   N/A           1/ 2

$$
&&



USA.gov is the U.S. government's official web portal to all federal, state and local government web resources and services.